User: anonymous   Login
Location: Bonny Doon Airfield
(37.0704°N, 122.1252°W)
Time: 09:44:23
(UTC-08:00)
Language:

N. Korean satellite - Orbit

View from above orbital plane
View from above orbital plane
View from above satellite
View from above satellite

Ground track
Ground track

The orbit data is extracted from the following two-line orbital elements,

1 39026U 12072A   17350.91795752 +.00001437 +00000-0 +57248-4 0  9998
2 39026 097.2158 002.5124 0038206 248.9003 110.8150 15.26195600277796
Epoch (UTC): 16 December 2017 22:01:51
Eccentricity: 0.0038206
inclination: 97.2158°
perigee height: 461 km
apogee height: 513 km
right ascension of ascending node: 2.5124°
argument of perigee: 248.9003°
revolutions per day: 15.26195600
mean anomaly at epoch: 110.8150°
orbit number at epoch: 27779

The dashed part of the orbit path shows where the satellite is in the earth's shadow,  

DLR